Theta_e
322 322 321 322 318 315 318 319 318 320 323 323 323 323 323 324 326 328 332 331 328 330 325 341 339 338 338 337 334 332 328 327 321 318 324 329 327 328 325 324 315 314 314 314 318 329 329 326 329
322 322 321 321 318 318 316 317 321 321 321 322 323 326 324 330 332 332 333 329 327 327 325 331 341 341 338 335 334 333 331 328 320 316 331 330 329 323 321 315 316 319 315 313 313 324 325 324 321
322 323 321 316 315 319 318 316 320 320 322 322 324 327 328 331 333 330 330 328 326 324 323 327 338 342 339 336 335 334 332 326 320 317 326 329 328 323 320 321 325 324 314 311 311 312 313 314 313
324 324 319 318 320 318 316 316 319 318 321 323 325 327 329 331 333 333 333 328 326 323 322 326 334 338 337 337 336 333 331 325 319 318 327 322 325 328 326 326 324 319 313 313 312 312 312 312 313
325 324 319 320 319 318 316 318 320 318 318 320 322 325 329 330 331 332 331 327 328 324 323 325 332 336 338 338 336 332 326 323 317 316 327 328 329 330 330 329 327 322 314 314 315 315 316 316 317
325 321 319 320 319 318 317 320 320 318 319 320 322 327 329 331 331 330 328 329 330 328 326 326 330 331 335 338 333 330 325 322 315 314 324 328 330 330 330 330 329 324 317 316 316 317 317 318 319
322 318 320 320 319 319 318 321 319 320 318 320 323 325 327 330 331 331 330 331 333 333 331 327 326 328 333 338 333 329 327 322 316 313 320 325 328 330 331 330 329 320 318 317 316 317 319 321 323
326 318 323 319 321 321 321 322 322 318 318 321 323 324 326 328 327 331 332 333 334 334 334 333 329 325 328 331 331 330 326 323 319 314 318 323 325 326 329 328 322 319 319 319 321 321 323 324 325
326 323 324 322 321 321 321 321 322 323 322 322 323 324 325 325 327 328 332 333 333 334 334 334 332 326 326 328 330 329 327 326 322 317 316 318 319 322 321 322 323 322 323 323 324 324 325 326 327
325 324 323 320 318 321 321 321 321 322 322 323 324 324 324 325 326 326 328 329 331 331 333 334 333 331 326 327 329 328 332 330 323 319 321 317 314 320 325 325 323 323 324 325 326 327 327 328 327
324 326 322 323 324 324 322 321 323 322 321 323 322 323 327 327 326 327 326 327 327 326 330 330 332 332 330 328 329 330 334 330 328 324 326 325 324 325 324 324 324 324 326 327 328 328 328 327 326
321 321 324 325 325 326 324 324 323 322 322 323 324 324 323 325 329 326 327 327 327 327 328 328 331 333 332 332 332 334 335 332 331 329 330 329 327 327 326 325 325 326 327 328 327 326 326 325 324
319 319 321 320 320 322 323 324 324 324 326 325 325 325 325 324 323 324 325 325 325 325 325 326 328 331 333 334 335 336 336 334 333 332 331 331 330 329 328 327 327 328 326 326 325 325 325 324 324
316 316 316 317 318 318 320 321 322 323 325 325 325 325 325 324 324 324 324 323 323 324 325 325 324 326 332 334 335 336 337 335 334 333 332 331 329 328 328 328 329 328 325 324 324 324 324 324 322
317 317 315 316 317 317 319 320 320 320 321 323 324 324 324 325 324 324 324 324 324 323 324 325 325 323 329 333 335 337 337 336 334 332 331 330 329 328 328 328 327 325 325 324 324 322 314 310 309
318 316 317 315 316 317 320 320 317 319 320 322 322 323 324 323 325 324 324 324 323 324 324 325 325 324 326 333 335 337 337 335 334 332 331 330 329 328 327 325 324 325 324 320 311 310 309 309 308
317 318 316 316 315 317 318 320 320 320 319 320 322 323 323 324 325 324 324 324 324 324 324 325 324 324 325 334 336 337 337 334 333 333 332 331 330 328 327 325 324 323 312 309 309 309 308 308 307
315 316 315 315 315 313 314 316 315 316 317 318 318 320 321 323 324 325 325 324 324 323 323 323 323 324 327 334 336 337 337 334 334 333 332 331 329 328 326 324 319 309 309 309 309 309 306 304 303
314 314 316 314 313 312 313 313 313 313 314 316 318 319 319 320 322 324 324 323 323 322 322 322 323 325 330 334 336 337 337 333 333 333 331 330 328 328 325 311 309 309 310 310 307 304 302 302 301
312 314 314 312 311 312 312 313 312 311 312 314 316 317 319 321 321 323 324 324 322 322 322 321 321 326 331 334 336 336 336 333 333 332 331 328 327 324 310 309 309 310 310 308 305 303 301 300 298
310 310 310 310 310 310 311 312 310 309 310 311 312 313 316 319 321 321 322 323 322 321 321 321 321 326 332 335 336 336 334 331 331 329 329 326 320 311 309 309 310 310 308 307 304 301 299 297 295
311 310 311 311 312 312 311 313 310 311 309 308 310 313 316 317 319 321 321 322 322 321 321 321 321 323 328 333 335 335 334 331 329 327 325 322 311 309 309 310 310 309 308 305 301 299 297 295 294
311 310 311 312 313 311 312 314 309 308 309 308 309 314 315 316 316 319 321 322 322 321 321 321 322 323 324 329 333 334 333 330 327 325 324 313 309 309 309 309 309 308 305 302 299 296 294 294 293
310 311 312 313 313 315 312 311 310 308 308 307 310 313 315 319 320 320 321 322 322 321 322 323 323 324 323 327 332 332 332 329 327 324 315 309 309 309 309 308 308 306 303 299 296 295 294 293 293
311 314 314 315 315 312 308 310 311 307 307 309 309 313 315 317 318 320 320 321 321 321 323 325 326 326 326 330 330 330 330 329 328 322 310 309 309 309 308 307 306 303 300 296 294 293 293 293 292
311 312 314 314 312 307 307 310 309 307 308 309 309 312 312 317 318 319 320 321 321 322 324 326 329 330 330 328 328 328 328 326 317 309 308 308 308 307 306 305 303 300 297 294 293 293 293 292 291
312 313 311 313 312 313 310 309 309 310 308 310 309 310 311 311 313 317 318 319 321 323 324 326 329 330 330 328 327 324 319 312 308 308 308 307 307 306 305 303 300 297 295 293 293 293 292 291 290
311 310 312 312 313 313 308 306 308 307 307 307 307 307 311 314 314 315 317 319 323 325 326 328 329 329 328 325 320 314 310 308 307 307 307 306 306 305 303 301 298 295 293 292 292 292 291 290 289
312 312 312 311 311 307 308 306 303 304 306 309 312 311 311 312 314 316 317 319 324 326 327 327 327 327 324 317 312 309 307 307 306 306 306 306 305 303 301 299 295 293 292 292 292 291 290 290 289
310 311 311 310 309 309 305 308 308 308 309 312 312 312 313 313 314 315 316 319 323 325 325 326 324 324 318 312 310 307 306 306 306 305 305 305 303 302 300 296 293 292 292 292 291 291 290 289 288
Wind_Speed
11 11 12 6 3 4 3 5 1 5 2 1 4 4 4 3 4 4 11 10 7 9 12 17 16 12 11 9 7 4 1 4 4 4 7 9 8 12 5 3 2 3 3 4 6 7 8 11 12
10 9 6 1 4 2 5 4 4 3 9 12 4 6 1 2 2 3 10 9 10 9 12 13 15 12 11 8 7 5 2 4 4 2 13 9 11 4 3 3 5 4 3 2 3 9 7 7 6
8 6 2 4 3 6 5 4 4 7 16 4 2 2 3 1 2 8 5 8 10 13 12 12 15 14 11 9 7 5 4 4 3 2 15 12 8 4 6 6 6 7 5 5 3 2 2 3 5
3 2 3 3 8 6 5 2 4 10 8 1 2 2 1 2 3 4 4 8 9 13 13 11 15 14 11 9 7 5 3 3 2 2 6 7 8 4 3 2 5 7 6 7 8 6 4 3 3
4 1 1 2 6 4 4 5 7 5 6 5 4 2 1 2 5 4 5 7 8 12 12 12 14 14 12 10 8 5 3 3 3 5 8 7 6 5 3 2 3 5 6 6 6 7 6 5 5
4 3 2 5 6 3 5 7 5 4 8 8 4 5 3 3 3 5 7 6 7 8 9 11 14 13 12 11 8 5 4 3 2 5 7 9 6 4 4 5 3 3 4 5 6 6 5 5 5
5 4 5 4 4 5 5 6 4 5 6 5 4 3 2 5 5 5 8 8 6 7 8 8 10 11 12 11 8 6 4 2 1 3 7 7 7 6 4 4 4 2 2 3 3 3 3 3 4
3 3 3 6 6 7 3 4 3 2 4 4 3 3 1 4 8 7 9 10 9 8 8 7 8 10 11 10 9 7 5 3 2 3 6 7 7 7 7 6 3 0 1 2 3 3 3 3 3
4 1 5 5 7 5 1 1 2 6 5 6 3 4 3 4 9 10 10 11 11 12 11 10 9 10 11 10 10 8 6 4 4 4 5 8 8 6 5 4 2 1 1 2 3 3 3 3 3
5 4 6 5 6 3 2 4 6 5 11 6 5 5 7 9 12 12 10 10 11 11 12 13 11 11 12 13 12 10 8 5 5 7 5 5 7 7 6 4 2 1 1 1 2 3 4 4 6
4 7 3 4 7 8 5 7 7 3 4 14 5 11 3 12 15 13 10 11 9 8 10 10 12 13 14 14 13 11 9 7 7 9 7 6 6 5 4 3 3 3 2 3 3 4 6 7 8
3 6 6 6 11 7 3 4 7 9 12 9 12 12 13 9 13 12 11 11 12 13 14 14 14 15 15 15 14 12 10 8 9 9 8 5 5 4 4 3 3 3 4 4 5 4 5 9 12
4 3 7 7 11 16 18 15 13 18 25 27 27 23 19 18 16 15 15 15 16 16 18 20 20 20 18 17 15 13 11 9 9 9 7 5 4 5 5 4 4 4 3 4 5 8 10 12 15
2 5 8 8 10 11 10 17 14 19 17 24 22 22 22 21 22 20 19 20 20 19 21 20 23 24 23 20 18 14 12 11 10 9 8 8 7 6 7 6 6 6 5 6 9 11 12 16 16
5 5 6 7 10 7 9 15 17 28 31 32 36 34 30 26 23 25 22 20 19 24 25 24 23 24 26 24 19 17 14 15 13 11 10 7 6 6 5 5 5 6 9 10 12 14 14 14 16
3 1 3 4 6 8 11 19 8 16 29 30 37 36 32 32 28 28 28 25 23 24 27 23 24 24 27 26 22 20 19 16 16 14 12 9 8 5 6 4 6 9 10 10 11 13 16 19 21
4 8 5 6 3 4 10 5 2 7 12 19 24 30 30 31 31 28 28 24 23 25 25 24 24 25 26 28 25 25 22 18 17 17 15 11 8 8 10 8 8 9 8 10 13 16 19 21 21
4 7 10 8 3 5 9 15 14 20 24 23 26 30 29 29 34 29 29 26 25 25 22 20 22 23 26 31 29 27 24 20 20 19 16 13 11 11 10 8 7 7 8 11 14 17 19 21 21
4 3 9 4 7 7 12 17 18 19 21 21 26 28 31 34 31 27 25 24 23 22 20 19 20 22 27 34 32 30 28 25 24 21 18 15 11 10 9 7 6 6 9 13 16 17 18 19 20
8 13 19 13 12 10 13 24 19 17 22 27 25 31 29 36 37 34 28 24 22 22 21 20 20 22 29 35 34 33 30 27 23 21 18 13 10 9 9 7 6 7 11 15 17 18 17 18 20
6 11 8 14 9 12 12 25 17 18 26 36 35 36 38 34 37 36 31 26 24 25 23 20 20 23 28 32 33 33 31 28 25 20 16 13 12 11 10 7 6 8 12 16 17 17 17 16 17
13 7 14 13 6 7 3 10 5 4 10 11 22 26 32 38 36 37 30 25 27 26 23 20 20 25 27 32 34 34 31 26 25 20 16 15 15 12 9 6 6 10 13 15 16 16 17 17 18
4 6 8 10 8 6 8 6 5 5 8 9 9 24 30 34 37 38 35 27 26 28 25 21 20 24 28 31 33 33 30 26 23 19 17 17 15 11 7 5 8 11 13 14 15 15 16 18 19
3 4 4 3 4 11 11 9 13 7 9 8 10 24 29 31 31 31 31 27 29 29 24 22 21 23 26 29 32 29 26 23 23 21 20 18 14 9 5 6 9 12 13 14 14 15 17 18 19
9 3 3 5 6 7 6 11 22 6 9 8 10 22 23 25 29 29 31 30 32 31 27 24 23 25 26 29 29 27 24 21 21 21 20 16 11 7 5 7 10 12 13 14 15 16 18 19 20
17 10 5 5 5 4 5 8 9 9 17 28 29 32 28 20 20 28 30 32 36 34 31 28 27 28 29 29 27 24 20 20 21 20 17 13 8 5 6 8 10 12 13 14 16 18 19 20 21
5 11 14 5 3 3 5 8 11 9 10 12 11 24 29 28 29 24 26 33 39 38 35 32 32 31 30 28 25 24 23 23 22 19 15 10 6 5 6 9 11 13 14 16 18 19 20 21 21
8 1 4 6 5 5 6 7 12 9 17 14 11 13 27 25 22 26 30 36 42 40 37 34 33 31 30 27 26 26 24 22 19 15 11 8 6 6 7 10 12 14 16 17 19 20 21 21 22
8 9 6 3 4 4 4 6 6 11 7 9 16 21 27 28 29 28 33 40 43 40 37 36 35 32 30 28 27 26 24 20 17 13 10 7 6 6 8 11 13 14 16 19 20 21 22 23 24
18 13 17 7 6 4 3 17 6 5 6 7 13 22 19 23 27 31 36 40 41 39 36 37 35 32 29 28 26 24 21 18 15 12 8 6 6 7 10 12 14 16 18 20 22 23 24 25 26
Wind_Direction
298 314 322 327 42 63 273 260 241 312 275 293 291 185 218 153 173 207 151 157 160 165 169 165 171 181 189 200 208 211 280 317 299 226 169 180 192 221 204 236 53 87 127 192 173 172 187 203 214
300 313 322 42 97 69 270 257 207 214 299 308 144 143 202 216 198 161 151 167 155 162 167 157 168 176 191 208 209 215 274 327 311 213 157 180 180 148 120 104 95 63 54 91 182 198 209 214 226
294 314 312 100 140 185 219 218 260 292 333 261 178 139 179 176 145 153 150 166 163 158 167 169 171 178 197 204 207 229 282 327 332 134 170 178 191 171 120 83 55 32 34 46 95 157 219 252 269
266 269 82 123 232 244 203 231 304 338 0 304 227 139 163 178 159 171 198 168 169 163 164 175 178 183 188 205 212 229 284 315 294 168 144 155 163 113 77 50 29 35 53 60 68 77 77 57 26
238 187 163 216 250 254 261 269 307 317 292 304 289 246 229 198 215 182 177 178 175 171 170 176 182 189 189 210 214 224 258 298 256 194 163 147 134 192 245 337 5 36 50 61 66 66 61 57 50
182 132 117 230 245 246 279 259 291 272 285 297 276 144 269 226 191 162 163 176 173 180 176 181 186 192 194 212 215 226 241 277 250 209 179 156 172 176 208 247 301 1 44 49 50 46 43 34 30
151 110 210 219 239 288 228 258 222 254 279 274 257 156 237 194 211 172 162 178 187 186 196 193 198 201 201 212 223 237 245 250 241 208 181 175 183 169 171 239 277 316 31 32 36 34 34 32 26
198 120 198 222 215 263 224 208 237 263 285 284 236 229 249 171 224 197 182 190 203 209 209 211 212 214 213 215 220 234 240 234 205 165 183 187 191 189 183 228 247 197 19 24 36 41 44 23 19
171 128 226 226 161 230 350 124 241 321 287 315 252 228 205 207 217 222 208 210 211 218 221 224 228 225 220 220 220 225 224 224 200 179 184 199 202 193 182 174 173 174 71 39 47 24 1 348 344
172 194 235 198 191 242 279 292 297 327 317 322 290 254 250 222 210 223 225 226 225 228 233 233 232 233 226 221 221 221 217 215 196 183 169 168 176 184 185 195 202 195 19 22 339 334 334 322 319
194 235 276 272 283 293 269 286 279 252 264 265 285 320 302 195 200 213 221 234 252 253 245 248 243 237 231 226 225 220 217 204 190 183 170 159 163 177 199 204 212 230 262 287 304 321 323 323 324
223 242 236 268 283 301 260 299 303 262 251 250 277 297 290 260 223 225 239 255 264 271 270 260 249 242 236 229 224 220 217 207 191 187 184 177 179 210 208 219 237 258 291 294 304 319 318 312 310
207 233 261 284 294 281 280 265 264 261 268 267 272 280 270 267 254 251 251 255 263 268 276 268 258 246 237 230 221 214 212 205 190 194 197 203 210 239 239 262 272 290 291 286 299 297 301 301 297
301 279 274 284 269 279 269 266 259 259 269 267 261 262 268 274 257 257 258 262 268 269 267 283 261 246 237 231 221 215 210 201 196 207 215 222 230 239 249 256 268 253 267 273 285 288 294 297 300
279 307 297 224 236 246 270 262 237 256 256 255 263 266 267 261 264 254 264 260 275 266 263 267 258 245 235 230 220 212 206 207 207 220 216 230 237 264 270 275 272 256 272 280 296 302 306 307 304
292 267 302 317 228 231 187 261 300 286 237 235 248 254 256 256 253 252 259 267 270 264 264 261 251 245 235 225 216 209 207 219 222 224 225 230 243 260 275 275 259 275 287 298 304 305 304 303 302
184 261 255 316 278 261 205 287 255 345 306 256 255 257 253 247 246 245 253 262 269 266 261 255 249 243 234 218 212 209 209 223 223 209 212 219 240 267 266 261 265 281 292 302 307 310 308 305 304
240 239 257 258 284 353 284 278 284 289 293 283 276 271 267 262 255 253 257 264 271 262 249 248 244 242 224 212 209 207 210 215 210 207 210 216 226 266 270 251 252 268 297 311 315 315 315 317 322
258 266 267 266 294 316 269 275 275 278 268 266 270 271 270 266 263 256 261 264 265 241 232 239 244 239 218 210 206 204 204 198 199 202 204 207 224 258 241 222 243 283 306 319 326 329 329 324 328
247 265 266 275 251 261 281 278 276 265 261 257 250 259 262 265 264 260 262 268 261 231 228 237 243 233 217 212 208 206 200 194 201 200 203 205 222 235 211 221 255 297 320 332 335 335 337 338 340
219 234 252 256 293 270 286 284 265 257 242 246 243 243 254 258 264 261 258 259 247 231 228 231 233 223 217 209 206 199 194 191 192 197 200 202 206 206 208 228 272 313 333 336 338 339 341 343 345
255 198 240 252 252 255 154 286 238 278 273 239 250 240 238 248 254 256 252 250 247 232 226 223 222 219 213 209 208 207 203 204 195 195 214 204 196 202 213 244 298 324 331 338 340 340 339 339 339
254 179 213 229 235 273 229 275 278 234 273 270 246 241 239 245 246 247 245 241 244 228 223 220 216 215 213 209 207 205 204 201 208 197 209 193 195 200 221 272 311 326 335 337 337 335 333 334 334
196 237 266 273 231 248 220 206 263 231 232 230 238 243 242 239 240 241 237 234 226 219 215 213 205 203 203 203 202 208 211 209 209 205 192 191 195 208 245 293 317 328 333 334 331 329 328 329 328
195 165 217 224 212 251 196 205 248 262 270 255 252 261 257 254 247 239 225 219 213 211 208 203 196 193 189 191 196 202 206 212 210 196 190 191 201 219 270 305 320 326 326 326 326 327 326 325 325
199 201 221 235 228 255 195 235 250 214 238 255 246 259 274 259 250 242 233 216 207 206 202 198 190 186 182 188 193 194 201 201 186 184 186 195 207 237 284 305 315 319 321 322 324 325 324 324 324
167 213 221 265 198 241 239 285 285 250 247 262 254 252 254 253 250 237 231 213 202 201 199 194 187 184 184 187 191 188 183 182 183 183 188 196 214 255 289 305 312 317 318 321 322 322 323 324 322
210 239 176 200 228 234 248 261 250 314 306 287 271 250 259 258 243 229 220 206 198 196 192 188 187 185 185 186 184 179 177 180 183 186 189 199 229 265 294 307 314 316 319 320 322 323 323 323 321
197 223 217 260 200 201 261 258 215 230 273 294 311 288 256 243 228 216 207 200 193 190 187 184 185 183 182 181 178 179 178 180 182 184 192 211 246 281 302 311 314 316 318 321 322 324 324 322 319
216 222 214 217 202 232 207 264 217 252 220 359 332 306 257 224 205 197 195 191 182 181 180 181 181 181 181 179 179 179 179 179 181 187 201 228 262 292 306 312 312 316 321 322 323 324 322 320 319